Regional Weather Roundup
Issued by NWS

Home | Current Version | Previous Version | Text Only | Print | Product List | Glossary Off
Versions: 1 2 3 4 5 6 7 8 9 10 11 12 13 14 15 16 17 18 19 20 21 22 23 24 25 26 27 28 29 30 31 32 33 34 35 36 37 38 39 40 41 42 43 44 45 46 47 48 49 50

490
ASUS43 KMPX 241801
RWRMN
WEATHER ROUNDUP FOR MINNESOTA
NATIONAL WEATHER SERVICE TWIN CITIES/CHANHASSEN MN
100 PM CDT SUN JUL 24 2016


NOTE: "FAIR" INDICATES FEW OR NO CLOUDS BELOW 12,000 FEET WITH NO
SIGNIFICANT WEATHER AND/OR OBSTRUCTIONS TO VISIBILITY. N/A MEANS
CURRENT SKY AND/OR WEATHER CONDITIONS ARE NOT AVAILABLE.

MNZ060>063-068>070-241900-
   Twin Cities Metro

CITY           SKY/WX    TMP DP  RH WIND       PRES   REMARKS
TWIN CITIES    PTSUNNY   82  63  52 W16       29.88S
6HR MIN TEMP:  73; 6HR MAX TEMP:  83;

ST PAUL        SUNNY     82  62  50 W18       29.87F
CRYSTAL        CLOUDY    80  62  54 W13       29.87F
BLAINE         MOSUNNY   82  64  54 W16G22    29.90R
LAKEVILLE      SUNNY     79  64  61 NW14      29.89F
EDEN PRAIRIE   SUNNY     82  63  52 W16       29.88F
6HR MIN TEMP:  73; 6HR MAX TEMP:  83;

LAKEVILLE      SUNNY     79  64  61 NW14      29.89F
SOUTH ST PAUL  SUNNY     82  60  48 W12G21    29.87F
LAKE ELMO      FAIR      81  64  57 NW13G18   29.89S
$$
MNZ001>005-007-008-013>017-022>024-027-028-241900-
   Northwest Minnesota

CITY           SKY/WX    TMP DP  RH WIND       PRES   REMARKS
HALLOCK        SUNNY     77  63  61 W15G23    29.84R
ROSEAU         MOSUNNY   75  64  69 W12G21    29.83S
WARROAD        MOSUNNY   73  64  73 W13G18    29.82S
THIEF RVR FALL PTSUNNY   75  63  66 W18       29.88S
CROOKSTON      MOSUNNY   77  64  65 W15G21    29.88S
FOSSTON        MOSUNNY   75  63  64 SW14      29.90S
DETROIT LAKES  MOSUNNY   73  63  68 W14G20    29.94S
MOORHEAD       SUNNY     79  59  50 NW16G23   29.92S
PARK RAPIDS    MOSUNNY   76  60  57 W14       29.91R
MAHNOMEN       FAIR      76  62  61 W16       29.90F
$$
MNZ006-009>011-018-025>026-241900-
   North Central Minnesota

CITY           SKY/WX    TMP DP  RH WIND       PRES   REMARKS
BAUDETTE       MOSUNNY   76  61  59 W16G26    29.82R
FLAG ISLAND    MOSUNNY   72  57  60 W15G26    29.78R
INTL FALLS     PTSUNNY   73  60  63 W12G22    29.80R
6HR MIN TEMP:  65; 6HR MAX TEMP:  75;

WASKISH        SUNNY     75  63  64 W17G23    29.84S
BIG FORK       MOSUNNY   75  61  60 W9G21     29.84R
LONGVILLE      MOSUNNY   75  61  60 NW10G18   29.88S
GRAND RAPIDS   MOSUNNY   74  60  61 W15       29.87S
CRANE LAKE     PTSUNNY   72  61  68 W5        29.81R
ORR            MOSUNNY   75  57  53 W14       29.79R
COOK           MOSUNNY   73  61  64 W12G18    29.82R
WALKER         FAIR      74  60  61 W16G22    29.88S
$$
MNZ012-019>021-037-241900-
   Northeast Minnesota

CITY           SKY/WX    TMP DP  RH WIND       PRES   REMARKS
DULUTH         MOSUNNY   78  61  55 W17       29.83R
6HR MIN TEMP:  66; 6HR MAX TEMP:  78;

ELY            PTSUNNY   75  61  60 W15G21    29.80R
HIBBING        MOSUNNY   75  60  59 W14G24    29.83R
EVELETH        MOSUNNY   78  62  57 W14G25    29.83S
DULUTH HARBOR  MOSUNNY   81  64  57 W23       29.79S
TWO HARBORS    MOSUNNY   82  64  54 W12G20    29.77R
SILVER BAY     MOSUNNY   82  61  47 W8        29.76R
GRAND MARAIS     N/A     63  59  87 SW12      29.72S
G MARAIS ARPRT PTSUNNY   75  57  53 SW8G16    29.78R
$$
MNZ029>031-032-039>041-046>048-054>057-064-241900-
   West Central Minnesota

CITY           SKY/WX    TMP DP  RH WIND       PRES   REMARKS
FERGUS FALLS   MOSUNNY   77  64  65 NW12G17   29.94F
WHEATON        MOSUNNY   79  64  61 NW13G20   29.94F
MORRIS         SUNNY     77  61  57 NW12      29.93F
ALEXANDRIA     SUNNY     76  60  57 NW12      29.96F
ELBOW LAKE     FAIR      75  63  66 W13       29.94F
WADENA         SUNNY     73  61  64 W9G20     29.92S
GLENWOOD       SUNNY     75  63  64 W16G22    29.96F
APPLETON       MOSUNNY   79  61  53 N14       29.92F
BENSON         SUNNY     79  61  53 N12       29.95F
ORTONVILLE     CLOUDY    77  61  57 NW7G17    29.95F
MADISON        CLOUDY    77  61  57 N12       29.96S
WILLMAR        FAIR      75  63  64 NW13G18   29.95F
$$
MNZ033>034-036-042>043-049>051-058-059-241900-
   Central Minnesota

CITY           SKY/WX    TMP DP  RH WIND       PRES   REMARKS
ST CLOUD       PTSUNNY   78  65  63 W13       29.91S
6HR MIN TEMP:  70; 6HR MAX TEMP:  78;

SAUK CENTRE    FAIR      75  61  62 NW13G20   29.94S
PAYNESVILLE    PTSUNNY   75  62  65 NW12G17   29.94S
AITKIN         MOSUNNY   79  57  47 W8G16     29.88R
PINE RIVER     MOSUNNY   75  63  64 W10       29.92S
BRAINERD       SUNNY     75  61  61 W14G20    29.91R
STAPLES        SUNNY     75  57  53 NW15      29.92S
LONG PRAIRIE   FAIR      75  61  60 W14G21    29.94F
LITTLE FALLS   MOSUNNY   77  59  53 W15G22    29.92S
LITCHFIELD     CLOUDY    79  64  61 NW12      29.94R
BUFFALO        CLOUDY    78  62  58 W12       29.92F
MAPLE LAKE     CLOUDY    78  66  66 NW12G17   29.93S
HUTCHINSON     SUNNY     77  67  71 W14G20    29.95R
$$
MNZ037-044-045-052-053-241900-
   East Central Minnesota

CITY           SKY/WX    TMP DP  RH WIND       PRES   REMARKS
PRINCETON      MOSUNNY   81  64  57 W10       29.90S
MORA           MOSUNNY   75  59  57 NW13G18   29.90S
CAMBRIDGE      SUNNY     81  63  54 W15G21    29.88S
RUSH CITY      MOSUNNY   79  64  59 NW8G18    29.88S
MOOSE LAKE     MOSUNNY   77  61  57 W10       29.85R
HINCKLEY       FAIR      77  64  65 W13G18    29.88R
CLOQUET        MOSUNNY   77  57  50 W15       29.84S
MCGREGOR       MOSUNNY   75  59  57 W14G22    29.88R
$$
MNZ071>073-080-081-089-090-097-098-241900-
   Southwest Minnesota

CITY           SKY/WX    TMP DP  RH WIND       PRES   REMARKS
MONTEVIDEO     MOSUNNY   79  63  57 N8        29.96F
GRANITE FALLS  MOSUNNY   78  64  62 NW7G16    29.98S
CANBY          CLOUDY    79  62  56 W8        30.00S
MARSHALL       MOSUNNY   77  63  61 NW10      29.97F
REDWOOD FALLS  MOSUNNY   79  60  52 W16       29.96R
OLIVIA         MOSUNNY   75  63  64 NW12      29.96R
PIPESTONE      CLOUDY    79  63  57 NW10      30.02R
WINDOM         SUNNY     77  61  57 NW10      29.99R
WORTHINGTON    SUNNY     78  62  57 NW6       30.02R
JACKSON        SUNNY     79  57  47 N8        30.00S
TRACY          CLOUDY    78  66  66 NW9       29.99F
SLAYTON        MOSUNNY   77  62  58 NW6       30.01F
$$
MNZ065>067-074>077-082>085-091>093-241900-
   South Central Minnesota

CITY           SKY/WX    TMP DP  RH WIND       PRES   REMARKS
MANKATO        SUNNY     81  61  50 NW16      29.93R
NEW ULM        CLOUDY    77  61  57 NW15G23   29.95R
ST JAMES       SUNNY     75  57  53 W12       29.97R
FAIRMONT       SUNNY     79  45  29 NW13      29.95F
GLENCOE        CLOUDY    78  67  70 NW10      29.92R
FARIBAULT      SUNNY     81  64  57 W6G17     29.91F
OWATONNA       SUNNY     81  63  54 W10       29.92F
WASECA         SUNNY     77  63  61 W13       29.94F
ALBERT LEA     SUNNY     81  64  57 NW7       29.93F
$$
MNZ078>079-086>088-094>096-241900-
   Southeast Minnesota

CITY           SKY/WX    TMP DP  RH WIND       PRES   REMARKS
ROCHESTER      SUNNY     82  67  60 NW14G21   29.92R
6HR MIN TEMP:  76; 6HR MAX TEMP:  82;

RED WING       SUNNY     86  61  42 W15       29.86S
STANTON        SUNNY     81  63  54 W13G18    29.89S
DODGE CENTER   SUNNY     81  61  50 NW13G18   29.92F
WINONA         SUNNY     82  63  51 NW12G20   29.87R
AUSTIN         SUNNY     81  61  50 NW17      29.92F
PRESTON        SUNNY     81  62  52 NW14G21   29.92S
$$
ABBREVIATIONS USED IN REMARKS
   TC - TEMPERATURES IN CELSIUS
  WCI - WIND CHILL INDEX
   HX - HEAT INDEX
  VSB - VISIBILITY
$$




USA.gov is the U.S. government's official web portal to all federal, state and local government web resources and services.